Time,TemperatureF,DewpointF,PressureIn,WindDirection,WindDirectionDegrees,WindSpeedMPH,WindSpeedGustMPH,Humidity,HourlyPrecipIn,Conditions,Clouds,dailyrainin,SoftwareType,DateUTC
2013-03-04 00:09:00,43.3,41.1,29.72,WSW,246,0.0,0.0,92,0.00,,,0.00,Wunderground v.1.15,2013-03-04 08:09:00,
2013-03-04 00:15:00,43.5,41.3,29.72,WSW,246,0.0,0.0,92,0.00,,,0.00,Wunderground v.1.15,2013-03-04 08:15:00,
2013-03-04 00:21:00,43.5,41.3,29.72,WSW,246,0.0,0.0,92,0.00,,,0.00,Wunderground v.1.15,2013-03-04 08:21:00,
2013-03-04 00:27:00,43.6,41.4,29.72,WSW,246,0.0,0.0,92,0.00,,,0.00,Wunderground v.1.15,2013-03-04 08:27:00,
2013-03-04 00:33:00,43.8,41.9,29.73,WSW,246,0.0,0.0,93,0.00,,,0.00,Wunderground v.1.15,2013-03-04 08:33:00,
2013-03-04 00:39:00,43.9,42.0,29.73,WSW,246,0.0,0.0,93,0.00,,,0.00,Wunderground v.1.15,2013-03-04 08:39:00,
2013-03-04 00:45:00,43.9,42.0,29.73,WSW,246,0.0,0.0,93,0.00,,,0.00,Wunderground v.1.15,2013-03-04 08:45:00,
2013-03-04 00:51:00,44.2,42.3,29.73,WSW,246,0.0,0.0,93,0.00,,,0.00,Wunderground v.1.15,2013-03-04 08:51:00,
2013-03-04 00:57:00,44.2,42.3,29.74,WSW,246,0.0,0.0,93,0.00,,,0.00,Wunderground v.1.15,2013-03-04 08:57:00,
2013-03-04 01:03:00,44.2,42.3,29.74,WSW,246,0.0,0.0,93,0.00,,,0.00,Wunderground v.1.15,2013-03-04 09:03:00,
2013-03-04 01:09:00,44.2,42.6,29.74,WSW,246,0.0,0.0,94,0.00,,,0.00,Wunderground v.1.15,2013-03-04 09:09:00,
2013-03-04 01:15:00,44.5,42.9,29.74,WSW,246,0.0,0.0,94,0.00,,,0.00,Wunderground v.1.15,2013-03-04 09:15:00,
2013-03-04 01:21:00,44.5,42.9,29.74,WSW,246,0.0,0.0,94,0.00,,,0.00,Wunderground v.1.15,2013-03-04 09:21:00,
2013-03-04 01:27:00,44.5,42.9,29.74,WSW,246,0.0,0.0,94,0.00,,,0.00,Wunderground v.1.15,2013-03-04 09:27:00,
2013-03-04 01:33:00,44.5,42.9,29.74,WSW,246,0.0,0.0,94,0.00,,,0.00,Wunderground v.1.15,2013-03-04 09:33:00,
2013-03-04 01:39:00,44.5,42.9,29.73,WSW,246,0.0,0.0,94,0.00,,,0.00,Wunderground v.1.15,2013-03-04 09:39:00,
2013-03-04 01:45:00,44.3,42.4,29.73,WSW,246,0.0,0.0,93,0.00,,,0.00,Wunderground v.1.15,2013-03-04 09:45:00,
2013-03-04 01:51:00,44.3,42.7,29.73,WSW,246,0.0,0.0,94,0.00,,,0.00,Wunderground v.1.15,2013-03-04 09:51:00,
2013-03-04 01:57:00,44.5,42.9,29.73,WSW,246,0.0,0.0,94,0.00,,,0.00,Wunderground v.1.15,2013-03-04 09:57:00,
2013-03-04 02:03:00,44.5,42.9,29.73,WSW,246,0.0,0.0,94,0.00,,,0.00,Wunderground v.1.15,2013-03-04 10:03:00,
2013-03-04 02:09:00,44.6,43.0,29.73,WSW,246,0.0,0.0,94,0.00,,,0.00,Wunderground v.1.15,2013-03-04 10:09:00,
2013-03-04 02:15:00,44.6,43.0,29.74,WSW,246,0.0,0.0,94,0.00,,,0.00,Wunderground v.1.15,2013-03-04 10:15:00,
2013-03-04 02:21:00,44.6,43.0,29.73,WSW,246,0.0,0.0,94,0.00,,,0.00,Wunderground v.1.15,2013-03-04 10:21:00,
2013-03-04 02:27:00,44.8,43.2,29.74,WSW,246,0.0,0.0,94,0.00,,,0.00,Wunderground v.1.15,2013-03-04 10:27:00,
2013-03-04 02:33:00,44.8,43.2,29.74,WSW,246,0.0,0.0,94,0.00,,,0.00,Wunderground v.1.15,2013-03-04 10:33:00,
2013-03-04 02:39:00,44.8,43.2,29.74,WSW,246,0.0,0.0,94,0.00,,,0.00,Wunderground v.1.15,2013-03-04 10:39:00,
2013-03-04 02:45:00,44.8,43.2,29.73,WSW,246,0.0,0.0,94,0.00,,,0.00,Wunderground v.1.15,2013-03-04 10:45:00,
2013-03-04 02:51:00,44.8,43.2,29.73,WSW,246,0.0,0.0,94,0.00,,,0.00,Wunderground v.1.15,2013-03-04 10:51:00,
2013-03-04 02:57:00,44.8,43.2,29.73,WSW,246,0.0,0.0,94,0.00,,,0.00,Wunderground v.1.15,2013-03-04 10:57:00,
2013-03-04 03:03:00,44.6,43.0,29.73,WSW,246,0.0,0.0,94,0.00,,,0.00,Wunderground v.1.15,2013-03-04 11:03:00,
2013-03-04 03:09:00,44.5,42.9,29.73,WSW,246,0.0,0.0,94,0.00,,,0.00,Wunderground v.1.15,2013-03-04 11:09:00,
2013-03-04 03:15:00,44.5,42.9,29.73,WSW,246,0.0,0.0,94,0.00,,,0.00,Wunderground v.1.15,2013-03-04 11:15:00,
2013-03-04 03:21:00,44.5,42.9,29.72,WSW,246,0.0,0.0,94,0.00,,,0.00,Wunderground v.1.15,2013-03-04 11:21:00,
2013-03-04 03:27:00,44.3,42.7,29.72,WSW,246,0.0,0.0,94,0.00,,,0.00,Wunderground v.1.15,2013-03-04 11:27:00,
2013-03-04 03:33:00,44.1,42.5,29.73,WSW,246,0.0,0.0,94,0.00,,,0.00,Wunderground v.1.15,2013-03-04 11:33:00,
2013-03-04 03:39:00,44.1,42.5,29.73,WSW,246,0.0,0.0,94,0.00,,,0.00,Wunderground v.1.15,2013-03-04 11:39:00,
2013-03-04 03:45:00,43.9,42.3,29.73,WSW,246,0.0,0.0,94,0.00,,,0.00,Wunderground v.1.15,2013-03-04 11:45:00,
2013-03-04 03:51:00,43.6,42.0,29.73,WSW,246,0.0,0.0,94,0.00,,,0.00,Wunderground v.1.15,2013-03-04 11:51:00,
2013-03-04 03:57:00,43.6,42.0,29.73,WSW,246,0.0,0.0,94,0.00,,,0.00,Wunderground v.1.15,2013-03-04 11:57:00,
2013-03-04 04:03:00,43.6,42.0,29.73,WSW,246,0.0,0.0,94,0.00,,,0.00,Wunderground v.1.15,2013-03-04 12:03:00,
2013-03-04 04:09:00,43.6,42.0,29.74,WSW,246,0.0,0.0,94,0.00,,,0.00,Wunderground v.1.15,2013-03-04 12:09:00,
2013-03-04 04:15:00,43.6,42.0,29.74,WSW,246,0.0,0.0,94,0.00,,,0.00,Wunderground v.1.15,2013-03-04 12:15:00,
2013-03-04 04:21:00,43.8,42.2,29.74,WSW,246,0.0,0.0,94,0.00,,,0.00,Wunderground v.1.15,2013-03-04 12:21:00,
2013-03-04 04:27:00,43.9,42.6,29.74,WSW,246,0.0,0.0,95,0.00,,,0.00,Wunderground v.1.15,2013-03-04 12:27:00,
2013-03-04 04:33:00,44.1,42.8,29.74,WSW,246,0.0,0.0,95,0.00,,,0.00,Wunderground v.1.15,2013-03-04 12:33:00,
2013-03-04 04:39:00,44.1,42.8,29.74,WSW,246,0.0,0.0,95,0.00,,,0.00,Wunderground v.1.15,2013-03-04 12:39:00,
2013-03-04 04:45:00,43.9,42.6,29.74,WSW,246,0.0,0.0,95,0.00,,,0.00,Wunderground v.1.15,2013-03-04 12:45:00,
2013-03-04 04:51:00,43.9,42.6,29.74,WSW,246,0.0,1.0,95,0.00,,,0.00,Wunderground v.1.15,2013-03-04 12:51:00,
2013-03-04 04:57:00,43.8,42.5,29.74,WSW,246,0.0,1.0,95,0.00,,,0.00,Wunderground v.1.15,2013-03-04 12:57:00,
2013-03-04 05:03:00,43.6,42.3,29.75,WSW,246,0.0,0.0,95,0.00,,,0.00,Wunderground v.1.15,2013-03-04 13:03:00,
2013-03-04 05:09:00,43.6,42.3,29.75,WSW,246,0.0,0.0,95,0.00,,,0.00,Wunderground v.1.15,2013-03-04 13:09:00,
2013-03-04 05:15:00,43.5,42.2,29.75,WSW,246,0.0,0.0,95,0.00,,,0.00,Wunderground v.1.15,2013-03-04 13:15:00,
2013-03-04 05:21:00,43.5,42.2,29.75,WSW,246,0.0,0.0,95,0.00,,,0.00,Wunderground v.1.15,2013-03-04 13:21:00,
2013-03-04 05:27:00,43.3,42.0,29.75,WSW,246,0.0,0.0,95,0.00,,,0.00,Wunderground v.1.15,2013-03-04 13:27:00,
2013-03-04 05:33:00,43.3,42.0,29.75,WSW,246,0.0,0.0,95,0.00,,,0.00,Wunderground v.1.15,2013-03-04 13:33:00,
2013-03-04 05:39:00,43.3,42.2,29.75,WSW,246,0.0,0.0,96,0.00,,,0.00,Wunderground v.1.15,2013-03-04 13:39:00,
2013-03-04 05:45:00,43.5,42.4,29.75,WSW,246,0.0,0.0,96,0.00,,,0.00,Wunderground v.1.15,2013-03-04 13:45:00,
2013-03-04 05:51:00,43.6,42.5,29.75,WSW,246,0.0,1.0,96,0.00,,,0.00,Wunderground v.1.15,2013-03-04 13:51:00,
2013-03-04 05:57:00,43.5,42.4,29.75,WSW,246,0.0,1.0,96,0.00,,,0.00,Wunderground v.1.15,2013-03-04 13:57:00,
2013-03-04 06:03:00,43.6,42.5,29.75,WSW,246,0.0,0.0,96,0.00,,,0.00,Wunderground v.1.15,2013-03-04 14:03:00,
2013-03-04 06:09:00,43.6,42.5,29.75,WSW,246,0.0,0.0,96,0.00,,,0.00,Wunderground v.1.15,2013-03-04 14:09:00,
2013-03-04 06:15:00,43.5,42.4,29.75,WSW,246,0.0,0.0,96,0.00,,,0.00,Wunderground v.1.15,2013-03-04 14:15:00,
2013-03-04 06:21:00,43.3,42.2,29.75,WSW,246,0.0,0.0,96,0.00,,,0.00,Wunderground v.1.15,2013-03-04 14:21:00,
2013-03-04 06:27:00,43.3,42.2,29.75,WSW,246,0.0,0.0,96,0.00,,,0.00,Wunderground v.1.15,2013-03-04 14:27:00,
2013-03-04 06:33:00,43.2,42.1,29.75,WSW,246,0.0,1.0,96,0.00,,,0.00,Wunderground v.1.15,2013-03-04 14:33:00,
2013-03-04 06:39:00,43.2,42.1,29.76,WSW,246,0.0,0.0,96,0.00,,,0.00,Wunderground v.1.15,2013-03-04 14:39:00,
2013-03-04 06:45:00,43.3,42.2,29.76,WSW,246,0.0,0.0,96,0.00,,,0.00,Wunderground v.1.15,2013-03-04 14:45:00,
2013-03-04 06:51:00,43.3,42.2,29.75,WSW,246,0.0,0.0,96,0.00,,,0.00,Wunderground v.1.15,2013-03-04 14:51:00,
2013-03-04 06:57:00,43.3,42.2,29.75,WSW,246,0.0,0.0,96,0.00,,,0.00,Wunderground v.1.15,2013-03-04 14:57:00,
2013-03-04 07:03:00,43.5,42.4,29.75,WSW,246,0.0,0.0,96,0.00,,,0.00,Wunderground v.1.15,2013-03-04 15:03:00,
2013-03-04 07:09:00,43.6,42.5,29.75,WSW,246,0.0,0.0,96,0.00,,,0.00,Wunderground v.1.15,2013-03-04 15:09:00,
2013-03-04 07:15:00,43.6,42.5,29.76,WSW,246,0.0,0.0,96,0.00,,,0.00,Wunderground v.1.15,2013-03-04 15:15:00,
2013-03-04 07:21:00,43.5,42.4,29.76,WSW,246,0.0,0.0,96,0.00,,,0.00,Wunderground v.1.15,2013-03-04 15:21:00,
2013-03-04 07:27:00,43.6,42.5,29.76,WSW,246,0.0,0.0,96,0.00,,,0.00,Wunderground v.1.15,2013-03-04 15:27:00,
2013-03-04 07:33:00,43.6,42.5,29.77,WSW,246,0.0,0.0,96,0.00,,,0.00,Wunderground v.1.15,2013-03-04 15:33:00,
2013-03-04 07:39:00,43.6,42.5,29.77,WSW,246,0.0,0.0,96,0.00,,,0.00,Wunderground v.1.15,2013-03-04 15:39:00,
2013-03-04 07:45:00,43.8,42.7,29.77,WSW,246,0.0,0.0,96,0.00,,,0.00,Wunderground v.1.15,2013-03-04 15:45:00,
2013-03-04 07:51:00,43.9,42.8,29.78,WSW,246,0.0,0.0,96,0.00,,,0.00,Wunderground v.1.15,2013-03-04 15:51:00,
2013-03-04 07:57:00,44.1,43.0,29.78,WSW,247,1.0,2.0,96,0.00,,,0.00,Wunderground v.1.15,2013-03-04 15:57:00,
2013-03-04 08:03:00,44.2,43.1,29.78,West,265,1.0,2.0,96,0.00,,,0.00,Wunderground v.1.15,2013-03-04 16:03:00,
2013-03-04 08:09:00,44.1,42.8,29.78,WSW,244,2.0,2.0,95,0.00,,,0.00,Wunderground v.1.15,2013-03-04 16:09:00,
2013-03-04 08:15:00,44.2,42.9,29.78,WSW,254,2.0,2.0,95,0.00,,,0.00,Wunderground v.1.15,2013-03-04 16:15:00,
2013-03-04 08:21:00,44.3,43.0,29.78,WSW,254,1.0,1.0,95,0.00,,,0.00,Wunderground v.1.15,2013-03-04 16:21:00,
2013-03-04 08:27:00,44.5,43.2,29.78,WSW,238,0.0,1.0,95,0.00,,,0.00,Wunderground v.1.15,2013-03-04 16:27:00,
2013-03-04 08:33:00,44.5,43.2,29.78,West,279,1.0,2.0,95,0.00,,,0.00,Wunderground v.1.15,2013-03-04 16:33:00,
2013-03-04 08:39:00,44.3,42.7,29.78,WSW,250,2.0,3.0,94,0.00,,,0.00,Wunderground v.1.15,2013-03-04 16:39:00,
2013-03-04 08:45:00,44.5,43.2,29.79,WNW,293,2.0,3.0,95,0.00,,,0.00,Wunderground v.1.15,2013-03-04 16:45:00,
2013-03-04 08:51:00,44.6,43.0,29.79,WNW,288,1.0,2.0,94,0.00,,,0.00,Wunderground v.1.15,2013-03-04 16:51:00,
2013-03-04 08:57:00,44.8,43.2,29.80,WSW,254,1.0,2.0,94,0.00,,,0.00,Wunderground v.1.15,2013-03-04 16:57:00,
2013-03-04 09:03:00,45.1,43.5,29.80,NNW,338,0.0,1.0,94,0.00,,,0.00,Wunderground v.1.15,2013-03-04 17:03:00,
2013-03-04 09:09:00,45.4,43.8,29.80,NW,304,0.0,0.0,94,0.00,,,0.00,Wunderground v.1.15,2013-03-04 17:09:00,
2013-03-04 09:15:00,45.7,44.1,29.80,NNW,348,0.0,1.0,94,0.00,,,0.00,Wunderground v.1.15,2013-03-04 17:15:00,
2013-03-04 09:21:00,46.0,44.1,29.79,NNW,348,0.0,0.0,93,0.00,,,0.00,Wunderground v.1.15,2013-03-04 17:21:00,
2013-03-04 09:27:00,46.1,43.9,29.79,NNW,348,0.0,0.0,92,0.00,,,0.00,Wunderground v.1.15,2013-03-04 17:27:00,
2013-03-04 09:33:00,46.1,43.9,29.79,West,267,0.0,0.0,92,0.00,,,0.00,Wunderground v.1.15,2013-03-04 17:33:00,
2013-03-04 09:39:00,45.8,43.3,29.79,West,267,0.0,0.0,91,0.00,,,0.00,Wunderground v.1.15,2013-03-04 17:39:00,
2013-03-04 09:40:00,48.3,44.0,29.78,SE,130,0.0,4.0,85,0.00,,,0.00,Wunderground v.1.15,2013-03-04 17:40:00,
2013-03-04 09:42:00,48.2,43.9,29.78,SSE,150,1.0,4.0,85,0.00,,,0.00,Wunderground v.1.15,2013-03-04 17:42:00,
2013-03-04 09:44:00,48.0,44.0,29.78,SE,136,1.0,4.0,86,0.00,,,0.00,Wunderground v.1.15,2013-03-04 17:44:00,
2013-03-04 09:45:00,46.1,43.6,29.79,West,275,0.0,3.0,91,0.00,,,0.00,Wunderground v.1.15,2013-03-04 17:45:00,
2013-03-04 09:46:00,48.0,43.7,29.78,SE,136,1.0,4.0,85,0.00,,,0.00,Wunderground v.1.15,2013-03-04 17:46:00,
2013-03-04 09:48:00,48.0,43.7,29.78,SW,224,1.0,4.0,85,0.00,,,0.00,Wunderground v.1.15,2013-03-04 17:48:00,
2013-03-04 09:50:00,48.0,43.7,29.77,SW,224,1.0,1.0,85,0.00,,,0.00,Wunderground v.1.15,2013-03-04 17:50:00,
2013-03-04 09:51:00,45.8,43.3,29.78,NW,304,1.0,1.0,91,0.00,,,0.00,Wunderground v.1.15,2013-03-04 17:51:00,
2013-03-04 09:52:00,48.2,44.2,29.78,SW,224,0.0,1.0,86,0.00,,,0.00,Wunderground v.1.15,2013-03-04 17:52:00,
2013-03-04 09:54:00,48.3,44.0,29.77,SW,224,0.0,1.0,85,0.00,,,0.00,Wunderground v.1.15,2013-03-04 17:54:00,
2013-03-04 09:56:00,48.6,44.3,29.78,SW,220,0.0,1.0,85,0.00,,,0.00,Wunderground v.1.15,2013-03-04 17:56:00,
2013-03-04 09:57:00,46.2,43.7,29.78,NW,304,1.0,1.0,91,0.00,,,0.00,Wunderground v.1.15,2013-03-04 17:57:00,
2013-03-04 09:58:00,48.9,44.6,29.77,SW,220,0.0,1.0,85,0.00,,,0.00,Wunderground v.1.15,2013-03-04 17:58:00,
2013-03-04 10:00:00,49.4,45.1,29.77,South,175,0.0,0.0,85,0.00,,,0.00,Wunderground v.1.15,2013-03-04 18:00:00,
2013-03-04 10:02:00,49.8,45.2,29.78,SSE,155,0.0,0.0,84,0.00,,,0.00,Wunderground v.1.15,2013-03-04 18:02:00,
2013-03-04 10:03:00,46.8,44.0,29.79,NNE,29,0.0,0.0,90,0.00,,,0.00,Wunderground v.1.15,2013-03-04 18:03:00,
2013-03-04 10:04:00,50.2,45.2,29.78,SSE,148,0.0,0.0,83,0.00,,,0.00,Wunderground v.1.15,2013-03-04 18:04:00,
2013-03-04 10:06:00,50.5,44.9,29.78,SW,236,0.0,2.0,81,0.00,,,0.00,Wunderground v.1.15,2013-03-04 18:06:00,
2013-03-04 10:08:00,50.7,45.1,29.78,WSW,243,0.0,3.0,81,0.00,,,0.00,Wunderground v.1.15,2013-03-04 18:08:00,
2013-03-04 10:09:00,47.4,44.3,29.79,NNE,28,0.0,0.0,89,0.00,,,0.00,Wunderground v.1.15,2013-03-04 18:09:00,
2013-03-04 10:10:00,50.5,44.6,29.78,WNW,288,1.0,3.0,80,0.00,,,0.00,Wunderground v.1.15,2013-03-04 18:10:00,
2013-03-04 10:12:00,50.4,44.8,29.78,WNW,288,1.0,3.0,81,0.00,,,0.00,Wunderground v.1.15,2013-03-04 18:12:00,
2013-03-04 10:14:00,50.2,44.6,29.78,WNW,288,2.0,3.0,81,0.00,,,0.00,Wunderground v.1.15,2013-03-04 18:14:00,
2013-03-04 10:15:00,47.7,44.3,29.78,NNW,331,0.0,1.0,88,0.00,,,0.00,Wunderground v.1.15,2013-03-04 18:15:00,
2013-03-04 10:16:00,50.1,44.5,29.78,WNW,288,2.0,3.0,81,0.00,,,0.00,Wunderground v.1.15,2013-03-04 18:16:00,
2013-03-04 10:18:00,50.2,44.9,29.78,WNW,288,1.0,3.0,82,0.00,,,0.00,Wunderground v.1.15,2013-03-04 18:18:00,
2013-03-04 10:20:00,50.2,44.6,29.78,WNW,288,1.0,1.0,81,0.00,,,0.00,Wunderground v.1.15,2013-03-04 18:20:00,
2013-03-04 10:21:00,48.2,44.5,29.78,NNE,21,1.0,1.0,87,0.00,,,0.00,Wunderground v.1.15,2013-03-04 18:21:00,
2013-03-04 10:22:00,50.4,44.8,29.78,WNW,288,0.0,1.0,81,0.00,,,0.00,Wunderground v.1.15,2013-03-04 18:22:00,
2013-03-04 10:24:00,50.7,45.1,29.78,WNW,288,0.0,1.0,81,0.00,,,0.00,Wunderground v.1.15,2013-03-04 18:24:00,
2013-03-04 10:26:00,51.0,44.7,29.78,West,280,0.0,1.0,79,0.00,,,0.00,Wunderground v.1.15,2013-03-04 18:26:00,
2013-03-04 10:27:00,48.5,44.2,29.78,ESE,111,0.0,1.0,85,0.00,,,0.00,Wunderground v.1.15,2013-03-04 18:27:00,
2013-03-04 10:28:00,51.0,45.0,29.78,NNW,340,0.0,1.0,80,0.00,,,0.00,Wunderground v.1.15,2013-03-04 18:28:00,
2013-03-04 10:30:00,51.3,45.3,29.78,NNW,340,0.0,0.0,80,0.00,,,0.00,Wunderground v.1.15,2013-03-04 18:30:00,
2013-03-04 10:32:00,51.3,45.3,29.78,SE,141,0.0,0.0,80,0.00,,,0.00,Wunderground v.1.15,2013-03-04 18:32:00,
2013-03-04 10:34:00,51.1,45.1,29.78,SW,219,0.0,0.0,80,0.00,,,0.00,Wunderground v.1.15,2013-03-04 18:34:00,
2013-03-04 10:36:00,51.0,45.0,29.78,SSW,212,0.0,0.0,80,0.00,,,0.00,Wunderground v.1.15,2013-03-04 18:36:00,
2013-03-04 10:38:00,51.0,45.4,29.78,SSW,212,0.0,0.0,81,0.00,,,0.00,Wunderground v.1.15,2013-03-04 18:38:00,
2013-03-04 10:40:00,50.8,45.2,29.78,SSW,209,0.0,0.0,81,0.00,,,0.00,Wunderground v.1.15,2013-03-04 18:40:00,
2013-03-04 10:42:00,50.8,45.2,29.78,SSW,208,0.0,0.0,81,0.00,,,0.00,Wunderground v.1.15,2013-03-04 18:42:00,
2013-03-04 10:44:00,51.0,45.4,29.78,SSE,159,0.0,3.0,81,0.00,,,0.00,Wunderground v.1.15,2013-03-04 18:44:00,
2013-03-04 10:46:00,51.0,45.4,29.79,SSE,162,0.0,3.0,81,0.00,,,0.00,Wunderground v.1.15,2013-03-04 18:46:00,
2013-03-04 10:48:00,50.7,45.1,29.79,SSE,162,1.0,3.0,81,0.00,,,0.00,Wunderground v.1.15,2013-03-04 18:48:00,
2013-03-04 10:50:00,50.7,45.1,29.79,SSE,162,1.0,1.0,81,0.00,,,0.00,Wunderground v.1.15,2013-03-04 18:50:00,
2013-03-04 10:52:00,50.8,45.2,29.79,SSE,162,1.0,1.0,81,0.00,,,0.00,Wunderground v.1.15,2013-03-04 18:52:00,
2013-03-04 10:54:00,51.0,45.4,29.79,West,276,1.0,1.0,81,0.00,,,0.00,Wunderground v.1.15,2013-03-04 18:54:00,
2013-03-04 10:56:00,51.0,45.4,29.79,WNW,296,1.0,1.0,81,0.00,,,0.00,Wunderground v.1.15,2013-03-04 18:56:00,
2013-03-04 10:58:00,51.1,45.5,29.78,NNW,336,0.0,1.0,81,0.00,,,0.00,Wunderground v.1.15,2013-03-04 18:58:00,
2013-03-04 11:00:00,51.3,45.3,29.78,NNE,22,1.0,1.0,80,0.00,,,0.00,Wunderground v.1.15,2013-03-04 19:00:00,
2013-03-04 11:02:00,51.4,45.1,29.78,NNE,24,1.0,1.0,79,0.00,,,0.00,Wunderground v.1.15,2013-03-04 19:02:00,
2013-03-04 11:04:00,51.4,45.1,29.78,SW,219,1.0,2.0,79,0.00,,,0.00,Wunderground v.1.15,2013-03-04 19:04:00,
2013-03-04 11:06:00,51.4,45.4,29.78,WNW,284,1.0,2.0,80,0.00,,,0.00,Wunderground v.1.15,2013-03-04 19:06:00,
2013-03-04 11:08:00,51.4,45.4,29.78,NW,310,1.0,5.0,80,0.00,,,0.00,Wunderground v.1.15,2013-03-04 19:08:00,
2013-03-04 11:10:00,51.3,45.3,29.78,West,272,2.0,2.0,80,0.00,,,0.00,Wunderground v.1.15,2013-03-04 19:10:00,
2013-03-04 11:12:00,51.0,45.4,29.78,NW,304,3.0,4.0,81,0.00,,,0.00,Wunderground v.1.15,2013-03-04 19:12:00,
2013-03-04 11:14:00,50.8,45.2,29.78,WNW,300,4.0,4.0,81,0.00,,,0.00,Wunderground v.1.15,2013-03-04 19:14:00,
2013-03-04 11:16:00,50.7,45.1,29.78,NW,310,4.0,4.0,81,0.00,,,0.00,Wunderground v.1.15,2013-03-04 19:16:00,
2013-03-04 11:18:00,50.5,44.9,29.78,West,275,4.0,4.0,81,0.00,,,0.00,Wunderground v.1.15,2013-03-04 19:18:00,
2013-03-04 11:20:00,50.4,45.1,29.78,WNW,301,4.0,4.0,82,0.00,,,0.00,Wunderground v.1.15,2013-03-04 19:20:00,
2013-03-04 11:22:00,50.2,44.9,29.78,West,272,4.0,4.0,82,0.00,,,0.00,Wunderground v.1.15,2013-03-04 19:22:00,
2013-03-04 11:24:00,50.2,45.2,29.78,WNW,296,4.0,5.0,83,0.00,,,0.00,Wunderground v.1.15,2013-03-04 19:24:00,
2013-03-04 11:26:00,50.2,45.2,29.78,WNW,292,4.0,5.0,83,0.00,,,0.00,Wunderground v.1.15,2013-03-04 19:26:00,
2013-03-04 11:28:00,50.4,45.1,29.78,WNW,291,4.0,5.0,82,0.00,,,0.00,Wunderground v.1.15,2013-03-04 19:28:00,
2013-03-04 11:30:00,50.4,45.1,29.78,WNW,289,4.0,4.0,82,0.00,,,0.00,Wunderground v.1.15,2013-03-04 19:30:00,
2013-03-04 11:32:00,50.4,45.1,29.78,SW,227,3.0,4.0,82,0.00,,,0.00,Wunderground v.1.15,2013-03-04 19:32:00,
2013-03-04 11:34:00,50.4,45.1,29.78,West,273,3.0,4.0,82,0.00,,,0.00,Wunderground v.1.15,2013-03-04 19:34:00,
2013-03-04 11:36:00,50.2,44.9,29.78,WNW,302,4.0,4.0,82,0.00,,,0.00,Wunderground v.1.15,2013-03-04 19:36:00,
2013-03-04 11:38:00,50.2,44.9,29.77,WNW,282,4.0,4.0,82,0.00,,,0.00,Wunderground v.1.15,2013-03-04 19:38:00,
2013-03-04 11:40:00,50.2,44.9,29.77,West,275,4.0,4.0,82,0.00,,,0.00,Wunderground v.1.15,2013-03-04 19:40:00,
2013-03-04 11:42:00,50.2,44.9,29.77,WNW,286,4.0,4.0,82,0.00,,,0.00,Wunderground v.1.15,2013-03-04 19:42:00,
2013-03-04 11:44:00,50.5,45.5,29.77,WNW,290,3.0,4.0,83,0.00,,,0.00,Wunderground v.1.15,2013-03-04 19:44:00,
2013-03-04 11:46:00,50.7,45.4,29.76,WNW,285,2.0,4.0,82,0.00,,,0.00,Wunderground v.1.15,2013-03-04 19:46:00,
2013-03-04 11:48:00,50.8,45.2,29.76,North,5,1.0,4.0,81,0.00,,,0.00,Wunderground v.1.15,2013-03-04 19:48:00,
2013-03-04 11:50:00,51.0,45.4,29.76,North,9,1.0,1.0,81,0.00,,,0.00,Wunderground v.1.15,2013-03-04 19:50:00,
2013-03-04 11:52:00,51.1,45.1,29.76,NE,46,1.0,1.0,80,0.00,,,0.00,Wunderground v.1.15,2013-03-04 19:52:00,
2013-03-04 11:54:00,51.3,45.3,29.76,NE,55,1.0,1.0,80,0.00,,,0.00,Wunderground v.1.15,2013-03-04 19:54:00,
2013-03-04 11:56:00,51.6,45.6,29.75,ENE,76,1.0,1.0,80,0.00,,,0.00,Wunderground v.1.15,2013-03-04 19:56:00,
2013-03-04 11:58:00,51.6,45.3,29.75,SE,141,0.0,1.0,79,0.00,,,0.00,Wunderground v.1.15,2013-03-04 19:58:00,
2013-03-04 12:00:00,51.6,45.0,29.75,SE,141,0.0,0.0,78,0.00,,,0.00,Wunderground v.1.15,2013-03-04 20:00:00,
2013-03-04 12:02:00,51.6,45.6,29.75,South,180,1.0,1.0,80,0.00,,,0.00,Wunderground v.1.15,2013-03-04 20:02:00,
2013-03-04 12:04:00,51.4,45.1,29.75,South,180,1.0,1.0,79,0.00,,,0.00,Wunderground v.1.15,2013-03-04 20:04:00,
2013-03-04 12:06:00,51.4,45.4,29.74,South,178,1.0,1.0,80,0.00,,,0.00,Wunderground v.1.15,2013-03-04 20:06:00,
2013-03-04 12:08:00,51.6,45.3,29.74,SSE,161,1.0,1.0,79,0.00,,,0.00,Wunderground v.1.15,2013-03-04 20:08:00,
2013-03-04 12:12:00,52.2,45.9,29.74,SSE,150,0.0,1.0,79,0.00,,,0.00,Wunderground v.1.15,2013-03-04 20:12:00,
2013-03-04 12:16:00,53.1,46.8,29.74,SW,217,1.0,4.0,79,0.00,,,0.00,Wunderground v.1.15,2013-03-04 20:16:00,
2013-03-04 12:18:00,53.5,46.5,29.73,South,180,1.0,4.0,77,0.00,,,0.00,Wunderground v.1.15,2013-03-04 20:18:00,
2013-03-04 12:20:00,54.1,47.0,29.73,SW,217,1.0,3.0,77,0.00,,,0.00,Wunderground v.1.15,2013-03-04 20:20:00,
2013-03-04 12:22:00,54.2,46.4,29.73,SSW,213,1.0,5.0,75,0.00,,,0.00,Wunderground v.1.15,2013-03-04 20:22:00,
2013-03-04 12:24:00,54.2,46.1,29.73,West,279,1.0,5.0,74,0.00,,,0.00,Wunderground v.1.15,2013-03-04 20:24:00,
2013-03-04 12:26:00,54.5,46.7,29.73,South,171,1.0,5.0,75,0.00,,,0.00,Wunderground v.1.15,2013-03-04 20:26:00,
2013-03-04 12:28:00,55.0,47.2,29.73,SSE,167,1.0,5.0,75,0.00,,,0.00,Wunderground v.1.15,2013-03-04 20:28:00,
2013-03-04 12:34:00,55.6,46.7,29.73,SE,136,1.0,3.0,72,0.00,,,0.00,Wunderground v.1.15,2013-03-04 20:34:00,
2013-03-04 12:59:00,51.9,45.6,29.74,SSE,150,1.0,1.0,79,0.00,,,0.00,Wunderground v.1.15,2013-03-04 20:59:00,
2013-03-04 13:19:00,55.1,46.6,29.73,SSE,153,1.0,2.0,73,0.00,,,0.00,Wunderground v.1.15,2013-03-04 21:19:00,
2013-03-04 13:25:00,55.4,46.2,29.73,SSE,147,1.0,3.0,71,0.00,,,0.00,Wunderground v.1.15,2013-03-04 21:25:00,
2013-03-04 13:31:00,55.9,46.6,29.73,SSE,163,1.0,1.0,71,0.00,,,0.00,Wunderground v.1.15,2013-03-04 21:31:00,
2013-03-04 13:37:00,56.6,46.9,29.73,NW,320,1.0,3.0,70,0.00,,,0.00,Wunderground v.1.15,2013-03-04 21:37:00,
2013-03-04 13:43:00,56.9,46.8,29.73,East,101,1.0,2.0,69,0.00,,,0.00,Wunderground v.1.15,2013-03-04 21:43:00,
2013-03-04 13:49:00,57.6,47.1,29.73,NNE,28,0.0,3.0,68,0.00,,,0.00,Wunderground v.1.15,2013-03-04 21:49:00,
2013-03-04 13:55:00,57.6,47.1,29.73,NW,309,2.0,5.0,68,0.00,,,0.00,Wunderground v.1.15,2013-03-04 21:55:00,
2013-03-04 14:01:00,56.5,47.9,29.72,WNW,288,4.0,4.0,73,0.00,,,0.00,Wunderground v.1.15,2013-03-04 22:01:00,
2013-03-04 14:07:00,55.9,47.0,29.73,WNW,288,4.0,4.0,72,0.00,,,0.00,Wunderground v.1.15,2013-03-04 22:07:00,
2013-03-04 14:13:00,55.4,46.9,29.73,WNW,300,5.0,6.0,73,0.00,,,0.00,Wunderground v.1.15,2013-03-04 22:13:00,
2013-03-04 14:19:00,55.1,47.0,29.73,WNW,294,6.0,6.0,74,0.00,,,0.00,Wunderground v.1.15,2013-03-04 22:19:00,
2013-03-04 14:25:00,55.1,47.0,29.73,West,265,6.0,8.0,74,0.00,,,0.00,Wunderground v.1.15,2013-03-04 22:25:00,
2013-03-04 14:31:00,56.3,47.4,29.73,NNW,330,4.0,7.0,72,0.00,,,0.00,Wunderground v.1.15,2013-03-04 22:31:00,
2013-03-04 14:37:00,56.5,47.6,29.72,West,276,5.0,7.0,72,0.00,,,0.00,Wunderground v.1.15,2013-03-04 22:37:00,
2013-03-04 14:43:00,56.7,47.4,29.72,NNW,328,5.0,6.0,71,0.00,,,0.00,Wunderground v.1.15,2013-03-04 22:43:00,
2013-03-04 14:49:00,56.9,47.6,29.73,NW,321,4.0,4.0,71,0.00,,,0.00,Wunderground v.1.15,2013-03-04 22:49:00,
2013-03-04 14:55:00,57.3,47.2,29.72,NW,312,3.0,4.0,69,0.00,,,0.00,Wunderground v.1.15,2013-03-04 22:55:00,
2013-03-04 15:01:00,57.2,46.3,29.73,WNW,284,2.0,5.0,67,0.00,,,0.00,Wunderground v.1.15,2013-03-04 23:01:00,
2013-03-04 15:07:00,56.7,46.3,29.72,WNW,301,3.0,7.0,68,0.00,,,0.00,Wunderground v.1.15,2013-03-04 23:07:00,
2013-03-04 15:13:00,56.3,46.6,29.72,NW,311,3.0,5.0,70,0.00,,,0.00,Wunderground v.1.15,2013-03-04 23:13:00,
2013-03-04 15:19:00,56.7,45.9,29.72,WNW,299,2.0,7.0,67,0.00,,,0.00,Wunderground v.1.15,2013-03-04 23:19:00,
2013-03-04 15:25:00,56.9,46.1,29.72,West,268,4.0,9.0,67,0.00,,,0.00,Wunderground v.1.15,2013-03-04 23:25:00,
2013-03-04 15:31:00,57.8,46.5,29.72,WSW,241,4.0,4.0,66,0.00,,,0.00,Wunderground v.1.15,2013-03-04 23:31:00,
2013-03-04 15:37:00,57.6,45.9,29.72,NW,322,4.0,6.0,65,0.00,,,0.00,Wunderground v.1.15,2013-03-04 23:37:00,
2013-03-04 15:43:00,57.5,46.2,29.72,SSW,209,4.0,4.0,66,0.00,,,0.00,Wunderground v.1.15,2013-03-04 23:43:00,
2013-03-04 15:49:00,57.2,45.5,29.72,WNW,292,4.0,5.0,65,0.00,,,0.00,Wunderground v.1.15,2013-03-04 23:49:00,
2013-03-04 15:55:00,57.0,45.7,29.71,West,265,3.0,5.0,66,0.00,,,0.00,Wunderground v.1.15,2013-03-04 23:55:00,
2013-03-04 16:01:00,57.3,45.6,29.71,SW,232,2.0,3.0,65,0.00,,,0.00,Wunderground v.1.15,2013-03-05 00:01:00,
2013-03-04 16:07:00,57.2,45.5,29.71,WSW,254,3.0,5.0,65,0.00,,,0.00,Wunderground v.1.15,2013-03-05 00:07:00,
2013-03-04 16:13:00,57.0,44.5,29.71,SW,219,2.0,3.0,63,0.00,,,0.00,Wunderground v.1.15,2013-03-05 00:13:00,
2013-03-04 16:19:00,57.0,44.1,29.71,WSW,238,1.0,2.0,62,0.00,,,0.00,Wunderground v.1.15,2013-03-05 00:19:00,
2013-03-04 16:25:00,56.6,44.1,29.71,South,188,2.0,3.0,63,0.00,,,0.00,Wunderground v.1.15,2013-03-05 00:25:00,
2013-03-04 16:31:00,56.0,44.0,29.71,SSE,157,3.0,4.0,64,0.00,,,0.00,Wunderground v.1.15,2013-03-05 00:31:00,
2013-03-04 16:37:00,55.6,43.6,29.71,WSW,247,3.0,4.0,64,0.00,,,0.00,Wunderground v.1.15,2013-03-05 00:37:00,
2013-03-04 16:43:00,55.0,43.0,29.71,SW,216,3.0,4.0,64,0.00,,,0.00,Wunderground v.1.15,2013-03-05 00:43:00,
2013-03-04 16:49:00,54.4,43.3,29.71,SSW,199,4.0,4.0,66,0.00,,,0.00,Wunderground v.1.15,2013-03-05 00:49:00,
2013-03-04 16:55:00,54.2,42.7,29.70,West,269,3.0,5.0,65,0.00,,,0.00,Wunderground v.1.15,2013-03-05 00:55:00,
2013-03-04 17:01:00,54.2,42.3,29.71,West,267,3.0,3.0,64,0.00,,,0.00,Wunderground v.1.15,2013-03-05 01:01:00,
2013-03-04 17:07:00,54.2,42.7,29.71,WNW,288,3.0,3.0,65,0.00,,,0.00,Wunderground v.1.15,2013-03-05 01:07:00,
2013-03-04 17:13:00,54.7,42.8,29.71,WNW,284,1.0,3.0,64,0.00,,,0.00,Wunderground v.1.15,2013-03-05 01:13:00,
2013-03-04 17:19:00,54.8,42.4,29.70,WNW,284,1.0,1.0,63,0.00,,,0.00,Wunderground v.1.15,2013-03-05 01:19:00,
2013-03-04 17:25:00,55.1,42.3,29.70,WNW,284,0.0,1.0,62,0.00,,,0.00,Wunderground v.1.15,2013-03-05 01:25:00,
2013-03-04 17:31:00,55.1,42.3,29.70,WNW,284,0.0,0.0,62,0.00,,,0.00,Wunderground v.1.15,2013-03-05 01:31:00,
2013-03-04 17:37:00,54.1,43.0,29.69,WNW,284,0.0,0.0,66,0.00,,,0.00,Wunderground v.1.15,2013-03-05 01:37:00,
2013-03-04 17:43:00,53.1,43.2,29.70,WNW,284,0.0,0.0,69,0.00,,,0.00,Wunderground v.1.15,2013-03-05 01:43:00,
2013-03-04 17:49:00,52.2,42.3,29.70,WNW,284,0.0,0.0,69,0.00,,,0.00,Wunderground v.1.15,2013-03-05 01:49:00,
2013-03-04 17:55:00,51.0,42.3,29.70,WNW,284,0.0,2.0,72,0.00,,,0.00,Wunderground v.1.15,2013-03-05 01:55:00,
2013-03-04 18:01:00,50.2,41.9,29.69,WNW,284,0.0,0.0,73,0.00,,,0.00,Wunderground v.1.15,2013-03-05 02:01:00,
2013-03-04 18:07:00,49.6,41.7,29.70,WNW,284,0.0,0.0,74,0.00,,,0.00,Wunderground v.1.15,2013-03-05 02:07:00,
2013-03-04 18:13:00,49.2,41.6,29.70,WNW,284,0.0,0.0,75,0.00,,,0.00,Wunderground v.1.15,2013-03-05 02:13:00,
2013-03-04 18:19:00,48.6,41.4,29.70,WNW,284,0.0,0.0,76,0.00,,,0.00,Wunderground v.1.15,2013-03-05 02:19:00,
2013-03-04 18:25:00,48.2,41.3,29.70,WNW,284,0.0,0.0,77,0.00,,,0.00,Wunderground v.1.15,2013-03-05 02:25:00,
2013-03-04 18:31:00,47.7,40.8,29.70,WSW,248,0.0,0.0,77,0.00,,,0.00,Wunderground v.1.15,2013-03-05 02:31:00,
2013-03-04 18:37:00,47.1,40.3,29.70,NW,307,1.0,2.0,77,0.00,,,0.00,Wunderground v.1.15,2013-03-05 02:37:00,
2013-03-04 18:43:00,46.5,40.0,29.70,WNW,284,2.0,2.0,78,0.00,,,0.00,Wunderground v.1.15,2013-03-05 02:43:00,
2013-03-04 18:49:00,46.2,40.0,29.70,WSW,237,3.0,5.0,79,0.00,,,0.00,Wunderground v.1.15,2013-03-05 02:49:00,
2013-03-04 18:55:00,46.1,39.9,29.70,SW,232,3.0,5.0,79,0.00,,,0.00,Wunderground v.1.15,2013-03-05 02:55:00,
2013-03-04 19:01:00,46.0,40.2,29.70,WSW,244,1.0,1.0,80,0.00,,,0.00,Wunderground v.1.15,2013-03-05 03:01:00,
2013-03-04 19:07:00,45.7,40.2,29.70,WSW,244,0.0,1.0,81,0.00,,,0.00,Wunderground v.1.15,2013-03-05 03:07:00,
2013-03-04 19:13:00,45.4,39.6,29.70,West,267,0.0,0.0,80,0.00,,,0.00,Wunderground v.1.15,2013-03-05 03:13:00,
2013-03-04 19:19:00,44.9,39.4,29.70,SW,227,0.0,0.0,81,0.00,,,0.00,Wunderground v.1.15,2013-03-05 03:19:00,
2013-03-04 19:25:00,44.6,39.4,29.70,WSW,238,1.0,2.0,82,0.00,,,0.00,Wunderground v.1.15,2013-03-05 03:25:00,
2013-03-04 19:31:00,44.3,39.5,29.70,WSW,238,1.0,1.0,83,0.00,,,0.00,Wunderground v.1.15,2013-03-05 03:31:00,
2013-03-04 19:37:00,44.2,39.4,29.70,WSW,246,0.0,1.0,83,0.00,,,0.00,Wunderground v.1.15,2013-03-05 03:37:00,
2013-03-04 19:43:00,44.1,39.3,29.70,West,259,1.0,1.0,83,0.00,,,0.00,Wunderground v.1.15,2013-03-05 03:43:00,
2013-03-04 19:49:00,43.9,39.1,29.70,West,259,0.0,0.0,83,0.00,,,0.00,Wunderground v.1.15,2013-03-05 03:49:00,
2013-03-04 19:55:00,43.6,39.1,29.71,WNW,300,1.0,4.0,84,0.00,,,0.00,Wunderground v.1.15,2013-03-05 03:55:00,
2013-03-04 20:01:00,43.6,39.1,29.71,SW,231,1.0,3.0,84,0.00,,,0.00,Wunderground v.1.15,2013-03-05 04:01:00,
2013-03-04 20:07:00,43.8,39.6,29.71,WNW,296,2.0,4.0,85,0.00,,,0.00,Wunderground v.1.15,2013-03-05 04:07:00,
2013-03-04 20:12:00,40.8,36.6,29.71,WNW,292,0.0,0.0,85,0.00,,,0.00,Wunderground v.1.15,2013-03-05 04:12:00,
2013-03-04 20:13:00,43.8,39.6,29.71,WNW,286,2.0,3.0,85,0.00,,,0.00,Wunderground v.1.15,2013-03-05 04:13:00,
2013-03-04 20:14:00,40.6,36.4,29.71,WNW,292,0.0,0.0,85,0.00,,,0.00,Wunderground v.1.15,2013-03-05 04:14:00,
2013-03-04 20:16:00,40.5,36.6,29.71,WNW,292,0.0,0.0,86,0.00,,,0.00,Wunderground v.1.15,2013-03-05 04:16:00,
2013-03-04 20:18:00,40.5,36.6,29.71,WNW,292,0.0,0.0,86,0.00,,,0.00,Wunderground v.1.15,2013-03-05 04:18:00,
2013-03-04 20:19:00,43.6,39.1,29.71,WNW,292,1.0,1.0,84,0.00,,,0.00,Wunderground v.1.15,2013-03-05 04:19:00,
2013-03-04 20:20:00,40.3,36.4,29.71,WNW,292,0.0,0.0,86,0.00,,,0.00,Wunderground v.1.15,2013-03-05 04:20:00,
2013-03-04 20:22:00,40.2,36.3,29.71,WNW,292,0.0,0.0,86,0.00,,,0.00,Wunderground v.1.15,2013-03-05 04:22:00,
2013-03-04 20:24:00,40.1,36.2,29.71,WNW,292,0.0,0.0,86,0.00,,,0.00,Wunderground v.1.15,2013-03-05 04:24:00,
2013-03-04 20:25:00,43.3,39.1,29.71,WNW,292,0.0,1.0,85,0.00,,,0.00,Wunderground v.1.15,2013-03-05 04:25:00,
2013-03-04 20:26:00,39.9,36.1,29.72,WNW,292,0.0,0.0,86,0.00,,,0.00,Wunderground v.1.15,2013-03-05 04:26:00,
2013-03-04 20:28:00,39.8,36.0,29.71,WNW,292,0.0,0.0,86,0.00,,,0.00,Wunderground v.1.15,2013-03-05 04:28:00,
2013-03-04 20:30:00,39.6,36.0,29.72,WNW,292,0.0,0.0,87,0.00,,,0.00,Wunderground v.1.15,2013-03-05 04:30:00,
2013-03-04 20:31:00,43.1,38.9,29.71,WNW,292,0.0,0.0,85,0.00,,,0.00,Wunderground v.1.15,2013-03-05 04:31:00,
2013-03-04 20:32:00,39.5,36.0,29.72,WNW,292,0.0,0.0,87,0.00,,,0.00,Wunderground v.1.15,2013-03-05 04:32:00,
2013-03-04 20:34:00,39.3,35.8,29.72,WNW,292,0.0,0.0,87,0.00,,,0.00,Wunderground v.1.15,2013-03-05 04:34:00,
2013-03-04 20:36:00,39.3,35.8,29.71,WNW,292,0.0,0.0,87,0.00,,,0.00,Wunderground v.1.15,2013-03-05 04:36:00,
2013-03-04 20:37:00,42.6,38.1,29.71,WNW,292,0.0,0.0,84,0.00,,,0.00,Wunderground v.1.15,2013-03-05 04:37:00,
2013-03-04 20:38:00,39.2,35.7,29.72,WNW,292,0.0,0.0,87,0.00,,,0.00,Wunderground v.1.15,2013-03-05 04:38:00,
2013-03-04 20:40:00,39.1,35.8,29.72,WNW,292,0.0,0.0,88,0.00,,,0.00,Wunderground v.1.15,2013-03-05 04:40:00,
2013-03-04 20:42:00,38.9,35.6,29.72,WNW,292,0.0,0.0,88,0.00,,,0.00,Wunderground v.1.15,2013-03-05 04:42:00,
2013-03-04 20:43:00,42.2,37.7,29.71,WNW,292,0.0,0.0,84,0.00,,,0.00,Wunderground v.1.15,2013-03-05 04:43:00,
2013-03-04 20:44:00,38.9,35.6,29.72,WNW,292,0.0,0.0,88,0.00,,,0.00,Wunderground v.1.15,2013-03-05 04:44:00,
2013-03-04 20:46:00,38.8,35.6,29.72,WNW,292,0.0,0.0,88,0.00,,,0.00,Wunderground v.1.15,2013-03-05 04:46:00,
2013-03-04 20:48:00,38.8,35.6,29.72,WNW,292,0.0,0.0,88,0.00,,,0.00,Wunderground v.1.15,2013-03-05 04:48:00,
2013-03-04 20:49:00,41.8,37.6,29.71,WNW,292,0.0,0.0,85,0.00,,,0.00,Wunderground v.1.15,2013-03-05 04:49:00,
2013-03-04 20:50:00,38.8,35.8,29.72,WNW,292,0.0,0.0,89,0.00,,,0.00,Wunderground v.1.15,2013-03-05 04:50:00,
2013-03-04 20:52:00,38.6,35.4,29.72,WNW,292,0.0,0.0,88,0.00,,,0.00,Wunderground v.1.15,2013-03-05 04:52:00,
2013-03-04 20:54:00,38.5,35.3,29.72,WNW,292,0.0,0.0,88,0.00,,,0.00,Wunderground v.1.15,2013-03-05 04:54:00,
2013-03-04 20:55:00,41.3,37.1,29.71,WNW,292,0.0,0.0,85,0.00,,,0.00,Wunderground v.1.15,2013-03-05 04:55:00,
2013-03-04 20:56:00,38.3,35.1,29.72,WNW,292,0.0,0.0,88,0.00,,,0.00,Wunderground v.1.15,2013-03-05 04:56:00,
2013-03-04 20:58:00,38.0,35.0,29.72,WNW,292,0.0,0.0,89,0.00,,,0.00,Wunderground v.1.15,2013-03-05 04:58:00,
2013-03-04 21:00:00,38.0,35.0,29.72,WNW,292,0.0,0.0,89,0.00,,,0.00,Wunderground v.1.15,2013-03-05 05:00:00,
2013-03-04 21:02:00,37.9,34.9,29.72,WNW,292,0.0,0.0,89,0.00,,,0.00,Wunderground v.1.15,2013-03-05 05:02:00,
2013-03-04 21:04:00,37.9,34.9,29.72,WNW,292,0.0,0.0,89,0.00,,,0.00,Wunderground v.1.15,2013-03-05 05:04:00,
2013-03-04 21:06:00,37.9,34.9,29.72,WNW,292,0.0,0.0,89,0.00,,,0.00,Wunderground v.1.15,2013-03-05 05:06:00,
2013-03-04 21:08:00,37.9,34.9,29.72,WNW,292,0.0,0.0,89,0.00,,,0.00,Wunderground v.1.15,2013-03-05 05:08:00,
2013-03-04 21:10:00,37.9,35.2,29.71,WNW,292,0.0,0.0,90,0.00,,,0.00,Wunderground v.1.15,2013-03-05 05:10:00,
2013-03-04 21:12:00,37.9,35.2,29.71,WNW,292,0.0,0.0,90,0.00,,,0.00,Wunderground v.1.15,2013-03-05 05:12:00,
2013-03-04 21:14:00,37.9,35.2,29.71,WNW,292,0.0,0.0,90,0.00,,,0.00,Wunderground v.1.15,2013-03-05 05:14:00,
2013-03-04 21:16:00,37.9,35.2,29.71,WNW,292,0.0,0.0,90,0.00,,,0.00,Wunderground v.1.15,2013-03-05 05:16:00,
2013-03-04 21:18:00,37.9,35.2,29.71,WNW,292,0.0,0.0,90,0.00,,,0.00,Wunderground v.1.15,2013-03-05 05:18:00,
2013-03-04 21:20:00,37.8,35.1,29.71,WNW,292,0.0,0.0,90,0.00,,,0.00,Wunderground v.1.15,2013-03-05 05:20:00,
2013-03-04 21:22:00,37.8,35.1,29.71,WNW,292,0.0,0.0,90,0.00,,,0.00,Wunderground v.1.15,2013-03-05 05:22:00,
2013-03-04 21:24:00,37.8,35.1,29.71,WNW,292,0.0,0.0,90,0.00,,,0.00,Wunderground v.1.15,2013-03-05 05:24:00,
2013-03-04 21:26:00,37.6,34.9,29.71,WNW,292,0.0,0.0,90,0.00,,,0.00,Wunderground v.1.15,2013-03-05 05:26:00,
2013-03-04 21:28:00,37.5,34.8,29.71,WNW,292,0.0,0.0,90,0.00,,,0.00,Wunderground v.1.15,2013-03-05 05:28:00,
2013-03-04 21:30:00,37.3,34.6,29.71,WNW,292,0.0,0.0,90,0.00,,,0.00,Wunderground v.1.15,2013-03-05 05:30:00,
2013-03-04 21:32:00,37.3,34.6,29.71,WNW,292,0.0,0.0,90,0.00,,,0.00,Wunderground v.1.15,2013-03-05 05:32:00,
2013-03-04 21:34:00,37.2,34.5,29.71,WNW,292,0.0,0.0,90,0.00,,,0.00,Wunderground v.1.15,2013-03-05 05:34:00,
2013-03-04 21:36:00,37.2,34.5,29.71,WNW,292,0.0,0.0,90,0.00,,,0.00,Wunderground v.1.15,2013-03-05 05:36:00,
2013-03-04 21:38:00,37.0,34.3,29.71,WNW,292,0.0,0.0,90,0.00,,,0.00,Wunderground v.1.15,2013-03-05 05:38:00,
2013-03-04 21:40:00,36.9,34.2,29.71,WNW,292,0.0,0.0,90,0.00,,,0.00,Wunderground v.1.15,2013-03-05 05:40:00,
2013-03-04 21:42:00,36.8,34.1,29.71,WNW,292,0.0,0.0,90,0.00,,,0.00,Wunderground v.1.15,2013-03-05 05:42:00,
2013-03-04 21:44:00,36.8,34.1,29.71,WNW,292,0.0,0.0,90,0.00,,,0.00,Wunderground v.1.15,2013-03-05 05:44:00,
2013-03-04 21:46:00,36.6,34.2,29.71,WNW,292,0.0,0.0,91,0.00,,,0.00,Wunderground v.1.15,2013-03-05 05:46:00,
2013-03-04 21:48:00,36.6,34.2,29.71,WNW,292,0.0,0.0,91,0.00,,,0.00,Wunderground v.1.15,2013-03-05 05:48:00,
2013-03-04 21:50:00,36.5,34.1,29.72,WNW,292,0.0,0.0,91,0.00,,,0.00,Wunderground v.1.15,2013-03-05 05:50:00,
2013-03-04 21:52:00,36.5,34.1,29.72,WNW,292,0.0,0.0,91,0.00,,,0.00,Wunderground v.1.15,2013-03-05 05:52:00,
2013-03-04 21:54:00,36.3,33.9,29.72,WNW,292,0.0,0.0,91,0.00,,,0.00,Wunderground v.1.15,2013-03-05 05:54:00,
2013-03-04 21:56:00,36.3,33.9,29.72,WNW,292,0.0,0.0,91,0.00,,,0.00,Wunderground v.1.15,2013-03-05 05:56:00,
2013-03-04 21:58:00,36.3,33.9,29.72,WNW,292,0.0,0.0,91,0.00,,,0.00,Wunderground v.1.15,2013-03-05 05:58:00,
2013-03-04 22:00:00,36.2,33.8,29.72,WNW,292,0.0,0.0,91,0.00,,,0.00,Wunderground v.1.15,2013-03-05 06:00:00,
2013-03-04 22:02:00,36.2,33.8,29.72,WNW,292,0.0,0.0,91,0.00,,,0.00,Wunderground v.1.15,2013-03-05 06:02:00,
2013-03-04 22:04:00,36.0,33.6,29.72,WNW,292,0.0,0.0,91,0.00,,,0.00,Wunderground v.1.15,2013-03-05 06:04:00,
2013-03-04 22:06:00,36.0,33.6,29.71,WNW,292,0.0,0.0,91,0.00,,,0.00,Wunderground v.1.15,2013-03-05 06:06:00,
2013-03-04 22:08:00,36.0,33.6,29.72,WNW,292,0.0,0.0,91,0.00,,,0.00,Wunderground v.1.15,2013-03-05 06:08:00,
2013-03-04 22:10:00,36.0,33.6,29.71,WNW,292,0.0,0.0,91,0.00,,,0.00,Wunderground v.1.15,2013-03-05 06:10:00,
2013-03-04 22:12:00,36.0,33.6,29.71,WNW,292,0.0,0.0,91,0.00,,,0.00,Wunderground v.1.15,2013-03-05 06:12:00,
2013-03-04 22:14:00,35.9,33.5,29.71,WNW,292,0.0,0.0,91,0.00,,,0.00,Wunderground v.1.15,2013-03-05 06:14:00,
2013-03-04 22:16:00,35.9,33.5,29.71,WNW,292,0.0,0.0,91,0.00,,,0.00,Wunderground v.1.15,2013-03-05 06:16:00,
2013-03-04 22:18:00,35.8,33.4,29.71,WNW,292,0.0,0.0,91,0.00,,,0.00,Wunderground v.1.15,2013-03-05 06:18:00,
2013-03-04 22:20:00,35.8,33.4,29.71,WNW,292,0.0,0.0,91,0.00,,,0.00,Wunderground v.1.15,2013-03-05 06:20:00,
2013-03-04 22:22:00,35.6,33.2,29.71,WNW,292,0.0,0.0,91,0.00,,,0.00,Wunderground v.1.15,2013-03-05 06:22:00,
2013-03-04 22:24:00,35.6,33.2,29.71,WNW,292,0.0,0.0,91,0.00,,,0.00,Wunderground v.1.15,2013-03-05 06:24:00,
2013-03-04 22:26:00,35.5,33.1,29.71,WNW,292,0.0,0.0,91,0.00,,,0.00,Wunderground v.1.15,2013-03-05 06:26:00,
2013-03-04 22:28:00,35.5,33.1,29.71,WNW,292,0.0,0.0,91,0.00,,,0.00,Wunderground v.1.15,2013-03-05 06:28:00,
2013-03-04 22:30:00,35.5,33.1,29.71,WNW,292,0.0,0.0,91,0.00,,,0.00,Wunderground v.1.15,2013-03-05 06:30:00,
2013-03-04 22:32:00,35.5,33.4,29.71,WNW,292,0.0,0.0,92,0.00,,,0.00,Wunderground v.1.15,2013-03-05 06:32:00,
2013-03-04 22:34:00,35.5,33.4,29.71,WNW,292,0.0,0.0,92,0.00,,,0.00,Wunderground v.1.15,2013-03-05 06:34:00,
2013-03-04 22:36:00,35.5,33.4,29.71,WNW,292,0.0,0.0,92,0.00,,,0.00,Wunderground v.1.15,2013-03-05 06:36:00,
2013-03-04 22:38:00,35.5,33.4,29.71,WNW,292,0.0,0.0,92,0.00,,,0.00,Wunderground v.1.15,2013-03-05 06:38:00,
2013-03-04 22:42:00,35.3,33.2,29.71,WNW,292,0.0,0.0,92,0.00,,,0.00,Wunderground v.1.15,2013-03-05 06:42:00,
2013-03-04 22:44:00,35.3,33.2,29.71,WNW,292,0.0,0.0,92,0.00,,,0.00,Wunderground v.1.15,2013-03-05 06:44:00,
2013-03-04 22:46:00,35.3,33.2,29.71,WNW,292,0.0,0.0,92,0.00,,,0.00,Wunderground v.1.15,2013-03-05 06:46:00,
2013-03-04 22:48:00,35.2,33.1,29.71,WNW,292,0.0,0.0,92,0.00,,,0.00,Wunderground v.1.15,2013-03-05 06:48:00,
2013-03-04 22:52:00,35.0,32.9,29.71,WNW,292,0.0,0.0,92,0.00,,,0.00,Wunderground v.1.15,2013-03-05 06:52:00,
2013-03-04 22:54:00,35.0,32.9,29.70,WNW,292,0.0,0.0,92,0.00,,,0.00,Wunderground v.1.15,2013-03-05 06:54:00,
2013-03-04 23:08:00,34.7,32.6,29.70,WNW,292,0.0,0.0,92,0.00,,,0.00,Wunderground v.1.15,2013-03-05 07:08:00,
2013-03-04 23:12:00,34.7,32.6,29.70,WNW,292,0.0,0.0,92,0.00,,,0.00,Wunderground v.1.15,2013-03-05 07:12:00,
2013-03-04 23:16:00,34.6,32.5,29.69,WNW,292,0.0,0.0,92,0.00,,,0.00,Wunderground v.1.15,2013-03-05 07:16:00,
2013-03-04 23:26:00,34.1,32.0,29.70,WNW,292,0.0,0.0,92,0.00,,,0.00,Wunderground v.1.15,2013-03-05 07:26:00,
2013-03-04 23:29:00,35.3,33.2,29.71,WNW,292,0.0,0.0,92,0.00,,,0.00,Wunderground v.1.15,2013-03-05 07:29:00,
2013-03-04 23:39:00,35.2,33.1,29.71,WNW,292,0.0,0.0,92,0.00,,,0.00,Wunderground v.1.15,2013-03-05 07:39:00,
2013-03-04 23:45:00,34.9,32.8,29.70,WNW,292,0.0,0.0,92,0.00,,,0.00,Wunderground v.1.15,2013-03-05 07:45:00,
2013-03-04 23:51:00,34.9,32.8,29.70,WNW,292,0.0,0.0,92,0.00,,,0.00,Wunderground v.1.15,2013-03-05 07:51:00,
2013-03-04 23:59:00,34.7,32.6,29.70,WNW,292,0.0,0.0,92,0.00,,,0.00,Wunderground v.1.15,2013-03-05 07:59:00,